DAL123 EGPH-KBOS

Flight info

Callsign DAL123
Flight time N/A
Altitude 36000
Route GOSAM DCT GOW L602 BRUCE DCT AMLAD DCT SUNOT/M082F360 DCT 58N020W 59N030W 59N040W 57N050W DCT HOIST/N0475F360 DCT TAFFY DCT AJJAY OOSHN5
Aircraft A339/H-SADE1E2E3GHIJ3J5M1P2RWXY/LB2D1

Departure

Time N/A
Airport Edinburgh Airport (EGPH)

Arrival

Time 2026-05-05 19:35
Airport Boston Logan International Airport (KBOS)
Time Latitude Longitude Altitude Speed Heading
2026-05-05 17:50 51.56786 -62.24280 39593 ft 456 kts 222°
2026-05-05 17:50 51.54367 -62.27551 39604 ft 456 kts 222°
2026-05-05 17:51 51.49540 -62.34058 39594 ft 456 kts 222°
2026-05-05 17:51 51.44697 -62.40568 39599 ft 456 kts 222°
2026-05-05 17:52 51.39865 -62.47046 39601 ft 456 kts 222°
2026-05-05 17:52 51.35025 -62.53518 39595 ft 455 kts 222°
2026-05-05 17:53 51.30189 -62.59962 39601 ft 454 kts 222°
2026-05-05 17:53 51.25360 -62.66376 39594 ft 453 kts 221°
2026-05-05 17:54 51.20533 -62.72777 39610 ft 453 kts 221°
2026-05-05 17:54 51.15719 -62.79136 39624 ft 451 kts 222°
2026-05-05 17:55 51.10890 -62.85505 39611 ft 451 kts 222°
2026-05-05 17:55 51.06103 -62.91797 39624 ft 450 kts 222°
2026-05-05 17:56 51.01281 -62.98118 39619 ft 449 kts 222°
2026-05-05 17:56 50.96450 -63.04430 39667 ft 449 kts 222°
2026-05-05 17:57 50.91658 -63.10677 39637 ft 447 kts 222°
2026-05-05 17:57 50.86892 -63.16871 39636 ft 446 kts 222°
2026-05-05 17:58 50.82113 -63.23065 39593 ft 446 kts 222°
2026-05-05 17:58 50.77329 -63.29251 39626 ft 445 kts 222°
2026-05-05 17:59 50.72561 -63.35402 39642 ft 444 kts 222°
2026-05-05 17:59 50.67818 -63.41501 39627 ft 442 kts 222°
2026-05-05 18:00 50.63055 -63.47607 39639 ft 443 kts 222°
2026-05-05 18:00 50.58291 -63.53696 39620 ft 442 kts 222°
2026-05-05 18:01 50.53532 -63.59768 39625 ft 442 kts 222°
2026-05-05 18:01 50.48781 -63.65810 39620 ft 442 kts 221°
2026-05-05 18:02 50.44013 -63.71861 39637 ft 441 kts 221°
2026-05-05 18:02 50.39265 -63.77867 39619 ft 440 kts 221°
2026-05-05 18:03 50.34548 -63.83820 39631 ft 439 kts 221°
2026-05-05 18:03 50.29819 -63.89771 39635 ft 438 kts 221°
2026-05-05 18:04 50.25077 -63.95723 39637 ft 437 kts 221°
2026-05-05 18:04 50.20363 -64.01627 39638 ft 437 kts 221°
2026-05-05 18:05 50.15616 -64.07555 39645 ft 436 kts 221°
2026-05-05 18:05 50.10916 -64.13405 39626 ft 435 kts 221°
2026-05-05 18:06 50.06204 -64.19260 39639 ft 435 kts 221°
2026-05-05 18:06 50.01491 -64.25097 39643 ft 435 kts 221°
2026-05-05 18:07 49.96780 -64.30920 39650 ft 433 kts 221°
2026-05-05 18:07 49.92078 -64.36716 39652 ft 433 kts 221°
2026-05-05 18:08 49.87366 -64.42509 39619 ft 432 kts 221°
2026-05-05 18:08 49.82692 -64.48243 39650 ft 432 kts 221°
2026-05-05 18:09 49.77999 -64.53986 39629 ft 431 kts 221°
2026-05-05 18:09 49.73315 -64.59695 39627 ft 430 kts 221°
2026-05-05 18:10 49.68637 -64.65391 39627 ft 429 kts 220°
2026-05-05 18:10 49.63942 -64.71089 39614 ft 430 kts 220°
2026-05-05 18:11 49.59286 -64.76727 39634 ft 429 kts 221°
2026-05-05 18:11 49.54607 -64.82381 39610 ft 428 kts 221°
2026-05-05 18:12 49.49929 -64.88017 39621 ft 427 kts 221°
2026-05-05 18:12 49.45254 -64.93637 39619 ft 427 kts 221°
2026-05-05 18:13 49.40587 -64.99235 39613 ft 426 kts 221°
2026-05-05 18:13 49.35924 -65.04810 39618 ft 426 kts 221°
2026-05-05 18:14 49.31265 -65.10365 39618 ft 425 kts 221°
2026-05-05 18:14 49.26630 -65.15885 39601 ft 425 kts 221°
2026-05-05 18:15 49.21993 -65.21389 39585 ft 424 kts 221°
2026-05-05 18:15 49.17331 -65.26910 39618 ft 424 kts 221°
2026-05-05 18:16 49.12690 -65.32391 39585 ft 424 kts 221°
2026-05-05 18:16 49.08040 -65.37872 39602 ft 424 kts 221°
2026-05-05 18:17 49.03367 -65.43367 39585 ft 425 kts 221°
2026-05-05 18:17 48.98723 -65.48814 39632 ft 424 kts 221°
2026-05-05 18:18 48.94080 -65.54244 39605 ft 422 kts 221°
2026-05-05 18:18 48.89448 -65.59654 39624 ft 422 kts 221°
2026-05-05 18:19 48.84790 -65.65073 39638 ft 421 kts 220°
2026-05-05 18:19 48.80159 -65.70451 39622 ft 421 kts 220°
2026-05-05 18:20 48.75517 -65.75829 39625 ft 422 kts 220°
2026-05-05 18:20 48.70852 -65.81223 39631 ft 422 kts 221°
2026-05-05 18:21 48.66205 -65.86586 39630 ft 422 kts 221°
2026-05-05 18:21 48.61563 -65.91927 39625 ft 422 kts 221°
2026-05-05 18:22 48.56926 -65.97250 39601 ft 422 kts 220°
2026-05-05 18:22 48.52246 -66.02606 39606 ft 421 kts 221°
2026-05-05 18:23 48.47616 -66.07896 39618 ft 421 kts 221°
2026-05-05 18:23 48.42939 -66.13229 39628 ft 420 kts 221°
2026-05-05 18:24 48.38302 -66.18501 39596 ft 421 kts 221°
2026-05-05 18:24 48.33661 -66.23762 39621 ft 420 kts 221°
2026-05-05 18:25 48.29006 -66.29034 39601 ft 419 kts 221°
2026-05-05 18:25 48.24347 -66.34293 39617 ft 418 kts 221°
2026-05-05 18:26 48.19716 -66.39510 39609 ft 417 kts 221°
2026-05-05 18:26 48.15083 -66.44714 39605 ft 419 kts 221°
2026-05-05 18:27 48.10456 -66.49908 39617 ft 418 kts 221°
2026-05-05 18:27 48.05808 -66.55106 39618 ft 418 kts 221°
2026-05-05 18:28 47.98848 -66.62864 39613 ft 418 kts 221°
2026-05-05 18:28 47.94192 -66.68048 39608 ft 418 kts 220°
2026-05-05 18:29 47.89564 -66.73183 39618 ft 418 kts 220°
2026-05-05 18:29 47.84913 -66.78331 39637 ft 416 kts 220°
2026-05-05 18:30 47.80275 -66.83456 39628 ft 415 kts 220°
2026-05-05 18:30 47.75655 -66.88545 39654 ft 415 kts 221°
2026-05-05 18:31 47.71062 -66.93597 39646 ft 414 kts 220°
2026-05-05 18:31 47.66419 -66.98695 39628 ft 414 kts 221°
2026-05-05 18:32 47.61829 -67.03719 39640 ft 414 kts 221°
2026-05-05 18:32 47.57202 -67.08777 39629 ft 413 kts 221°
2026-05-05 18:33 47.52586 -67.13809 39639 ft 413 kts 220°
2026-05-05 18:33 47.47988 -67.18809 39651 ft 413 kts 221°
2026-05-05 18:34 47.43361 -67.23834 39654 ft 413 kts 221°
2026-05-05 18:34 47.38664 -67.28611 39647 ft 414 kts 217°
2026-05-05 18:35 47.33609 -67.32779 39653 ft 418 kts 212°
2026-05-05 18:35 47.28349 -67.36372 39644 ft 419 kts 210°
2026-05-05 18:36 47.23071 -67.39949 39656 ft 419 kts 211°
2026-05-05 18:36 47.17793 -67.43510 39656 ft 418 kts 211°
2026-05-05 18:37 47.12525 -67.47053 39663 ft 418 kts 211°
2026-05-05 18:37 47.07273 -67.50573 39666 ft 417 kts 211°
2026-05-05 18:38 47.02035 -67.54073 39657 ft 416 kts 211°
2026-05-05 18:38 46.96773 -67.57587 39668 ft 416 kts 211°
2026-05-05 18:39 46.91497 -67.61098 39660 ft 415 kts 211°
2026-05-05 18:39 46.86278 -67.64566 39660 ft 416 kts 211°
2026-05-05 18:40 46.80986 -67.68074 39668 ft 416 kts 210°
2026-05-05 18:40 46.75736 -67.71545 39654 ft 417 kts 210°
2026-05-05 18:41 46.70475 -67.75019 39664 ft 418 kts 210°
2026-05-05 18:41 46.65173 -67.78508 39662 ft 418 kts 210°
2026-05-05 18:42 46.59901 -67.81972 39653 ft 417 kts 210°
2026-05-05 18:42 46.54615 -67.85438 39656 ft 418 kts 210°
2026-05-05 18:43 46.49341 -67.88889 39661 ft 418 kts 210°
2026-05-05 18:43 46.44054 -67.92340 39664 ft 419 kts 210°
2026-05-05 18:44 46.38732 -67.95808 39664 ft 418 kts 210°
2026-05-05 18:44 46.33436 -67.99251 39668 ft 418 kts 210°
2026-05-05 18:45 46.28159 -68.02671 39669 ft 418 kts 210°
2026-05-05 18:45 46.22858 -68.06104 39684 ft 418 kts 210°
2026-05-05 18:46 46.17567 -68.09521 39682 ft 419 kts 210°
2026-05-05 18:46 46.12253 -68.12946 39678 ft 419 kts 210°
2026-05-05 18:47 46.06944 -68.16361 39678 ft 419 kts 210°
2026-05-05 18:47 46.01650 -68.19759 39674 ft 419 kts 210°
2026-05-05 18:48 45.96334 -68.23162 39672 ft 419 kts 210°
2026-05-05 18:48 45.91009 -68.26567 39671 ft 420 kts 210°
2026-05-05 18:49 45.85678 -68.29968 39682 ft 420 kts 210°
2026-05-05 18:49 45.80347 -68.33363 39687 ft 420 kts 209°
2026-05-05 18:50 45.75023 -68.36743 39691 ft 420 kts 210°
2026-05-05 18:50 45.69702 -68.40113 39679 ft 421 kts 209°
2026-05-05 18:51 45.64334 -68.43510 39691 ft 421 kts 209°
2026-05-05 18:51 45.58989 -68.46883 39693 ft 422 kts 209°
2026-05-05 18:52 45.53653 -68.50243 39700 ft 422 kts 209°
2026-05-05 18:52 45.48267 -68.53627 39705 ft 422 kts 209°
2026-05-05 18:53 45.42896 -68.56996 39705 ft 422 kts 209°
2026-05-05 18:53 45.37560 -68.60336 39708 ft 422 kts 209°
2026-05-05 18:54 45.32189 -68.63692 39714 ft 423 kts 209°
2026-05-05 18:54 45.26805 -68.67046 39722 ft 424 kts 208°
2026-05-05 18:55 45.21400 -68.70407 39726 ft 424 kts 208°
2026-05-05 18:55 45.16013 -68.73753 39731 ft 424 kts 208°
2026-05-05 18:56 45.10611 -68.77097 39722 ft 425 kts 208°
2026-05-05 18:56 45.05199 -68.80443 39731 ft 426 kts 208°
2026-05-05 18:57 44.99774 -68.83789 39727 ft 425 kts 208°
2026-05-05 18:57 44.94391 -68.87100 39739 ft 425 kts 208°
2026-05-05 18:58 44.88990 -68.90417 39737 ft 425 kts 208°
2026-05-05 18:58 44.83566 -68.93743 39740 ft 425 kts 208°
2026-05-05 18:59 44.78130 -68.97070 39748 ft 426 kts 208°
2026-05-05 18:59 44.72716 -69.00375 39746 ft 426 kts 208°
2026-05-05 19:00 44.67276 -69.03690 39751 ft 426 kts 208°
2026-05-05 19:00 44.61852 -69.06988 39750 ft 426 kts 208°
2026-05-05 19:01 44.56405 -69.10291 39749 ft 427 kts 208°
2026-05-05 19:01 44.50986 -69.13574 39748 ft 426 kts 207°
2026-05-05 19:02 44.45557 -69.16852 39742 ft 427 kts 208°
2026-05-05 19:02 44.42834 -69.18497 39481 ft 425 kts 207°
2026-05-05 19:02 44.40140 -69.20119 39145 ft 421 kts 208°
2026-05-05 19:03 44.37476 -69.21722 38809 ft 417 kts 207°
2026-05-05 19:03 44.34817 -69.23322 38476 ft 415 kts 208°
2026-05-05 19:03 44.32160 -69.24920 38143 ft 415 kts 207°
2026-05-05 19:03 44.29503 -69.26517 37808 ft 416 kts 207°
2026-05-05 19:04 44.26867 -69.28098 37477 ft 417 kts 208°
2026-05-05 19:04 44.24194 -69.29702 37147 ft 418 kts 207°
2026-05-05 19:04 44.21511 -69.31307 36828 ft 419 kts 207°
2026-05-05 19:04 44.18876 -69.32885 36579 ft 419 kts 207°
2026-05-05 19:05 44.16170 -69.34502 36316 ft 419 kts 207°
2026-05-05 19:05 44.13492 -69.36100 36017 ft 421 kts 207°
2026-05-05 19:05 44.10827 -69.37691 35597 ft 421 kts 207°
2026-05-05 19:05 44.08158 -69.39280 35129 ft 422 kts 207°
2026-05-05 19:06 44.05446 -69.40894 34625 ft 422 kts 207°
2026-05-05 19:06 44.02748 -69.42497 34095 ft 421 kts 207°
2026-05-05 19:06 44.00092 -69.44075 33577 ft 421 kts 207°
2026-05-05 19:06 43.97395 -69.45675 32949 ft 422 kts 207°
2026-05-05 19:07 43.94685 -69.47284 32343 ft 422 kts 207°
2026-05-05 19:07 43.92016 -69.48865 31753 ft 421 kts 207°
2026-05-05 19:07 43.89335 -69.50452 31189 ft 420 kts 206°
2026-05-05 19:07 43.86614 -69.52062 30771 ft 422 kts 206°
2026-05-05 19:08 43.83927 -69.53649 30391 ft 420 kts 206°
2026-05-05 19:08 43.81256 -69.55223 30006 ft 418 kts 206°
2026-05-05 19:08 43.78598 -69.56789 29538 ft 415 kts 206°
2026-05-05 19:08 43.75969 -69.58338 29134 ft 411 kts 206°
2026-05-05 19:09 43.73343 -69.59830 28760 ft 407 kts 204°
2026-05-05 19:09 43.70705 -69.61136 28371 ft 404 kts 201°
2026-05-05 19:09 43.68033 -69.62334 27963 ft 400 kts 201°
2026-05-05 19:09 43.65423 -69.63517 27561 ft 397 kts 201°
2026-05-05 19:10 43.62823 -69.64698 27160 ft 393 kts 201°
2026-05-05 19:10 43.60222 -69.65877 26764 ft 390 kts 200°
2026-05-05 19:10 43.57659 -69.67035 26382 ft 387 kts 200°
2026-05-05 19:10 43.55140 -69.68173 25996 ft 384 kts 200°
2026-05-05 19:11 43.52585 -69.69324 25598 ft 381 kts 200°
2026-05-05 19:11 43.50107 -69.70439 25208 ft 379 kts 200°
2026-05-05 19:11 43.47602 -69.71568 24820 ft 376 kts 200°
2026-05-05 19:11 43.45143 -69.72672 24439 ft 373 kts 200°
2026-05-05 19:12 43.42685 -69.73775 24046 ft 371 kts 200°
2026-05-05 19:12 43.40229 -69.74876 23653 ft 368 kts 200°
2026-05-05 19:12 43.37801 -69.75964 23260 ft 366 kts 200°
2026-05-05 19:12 43.35409 -69.77035 22879 ft 364 kts 200°
2026-05-05 19:13 43.33005 -69.78112 22489 ft 362 kts 200°
2026-05-05 19:13 43.30642 -69.79170 22107 ft 360 kts 200°
2026-05-05 19:13 43.28262 -69.80231 21703 ft 358 kts 200°
2026-05-05 19:13 43.25919 -69.81277 21316 ft 356 kts 200°
2026-05-05 19:14 43.23569 -69.82326 20929 ft 355 kts 200°
2026-05-05 19:14 43.21229 -69.83369 20535 ft 353 kts 200°
2026-05-05 19:14 43.18882 -69.84414 20120 ft 351 kts 201°
2026-05-05 19:14 43.16568 -69.85444 19743 ft 350 kts 201°
2026-05-05 19:15 43.14261 -69.86471 19363 ft 348 kts 201°
2026-05-05 19:15 43.11986 -69.87482 18986 ft 347 kts 201°
2026-05-05 19:15 43.09688 -69.88502 18589 ft 346 kts 201°
2026-05-05 19:15 43.07407 -69.89513 18208 ft 344 kts 201°
2026-05-05 19:16 43.05144 -69.90518 17824 ft 343 kts 201°
2026-05-05 19:16 43.02864 -69.91526 17424 ft 342 kts 201°
2026-05-05 19:16 43.00626 -69.92515 17030 ft 341 kts 201°
2026-05-05 19:16 42.98367 -69.93514 16638 ft 340 kts 201°
2026-05-05 19:17 42.96109 -69.94511 16224 ft 339 kts 201°
2026-05-05 19:17 42.93882 -69.95496 15831 ft 338 kts 201°
2026-05-05 19:17 42.91668 -69.96474 15422 ft 338 kts 201°
2026-05-05 19:17 42.89420 -69.97465 15008 ft 337 kts 202°
2026-05-05 19:18 42.87211 -69.98440 14608 ft 337 kts 202°
2026-05-05 19:18 42.84985 -69.99420 14194 ft 336 kts 202°
2026-05-05 19:18 42.82818 -70.00375 13799 ft 336 kts 202°
2026-05-05 19:18 42.80593 -70.01354 13370 ft 336 kts 202°
2026-05-05 19:19 42.78379 -70.02328 12951 ft 335 kts 202°
2026-05-05 19:19 42.76166 -70.03304 12560 ft 333 kts 203°
2026-05-05 19:19 42.73996 -70.04365 12179 ft 329 kts 204°
2026-05-05 19:19 42.71875 -70.05411 11875 ft 326 kts 204°
2026-05-05 19:20 42.69742 -70.06466 11552 ft 323 kts 204°
2026-05-05 19:20 42.67661 -70.07496 11188 ft 321 kts 205°
2026-05-05 19:20 42.65725 -70.08939 10778 ft 313 kts 223°
2026-05-05 19:20 42.64316 -70.11114 10395 ft 307 kts 239°
2026-05-05 19:21 42.63373 -70.13697 10150 ft 301 kts 245°
2026-05-05 19:21 42.62513 -70.16215 10092 ft 288 kts 245°
2026-05-05 19:21 42.61688 -70.18624 10088 ft 276 kts 245°
2026-05-05 19:21 42.60899 -70.20930 10032 ft 264 kts 247°
2026-05-05 19:22 42.60328 -70.23220 9959 ft 254 kts 256°
2026-05-05 19:22 42.60054 -70.25568 9969 ft 254 kts 263°
2026-05-05 19:22 42.59927 -70.27958 9869 ft 253 kts 264°
2026-05-05 19:22 42.59817 -70.30346 9556 ft 254 kts 264°
2026-05-05 19:23 42.59711 -70.32732 9263 ft 253 kts 264°
2026-05-05 19:23 42.59604 -70.35118 8947 ft 253 kts 264°
2026-05-05 19:23 42.59495 -70.37470 8676 ft 252 kts 264°
2026-05-05 19:23 42.59386 -70.39849 8415 ft 250 kts 264°
2026-05-05 19:24 42.59277 -70.42186 8132 ft 250 kts 263°
2026-05-05 19:24 42.59168 -70.44526 7861 ft 249 kts 263°
2026-05-05 19:24 42.59058 -70.46848 7560 ft 249 kts 263°
2026-05-05 19:24 42.58947 -70.49189 7276 ft 248 kts 263°
2026-05-05 19:25 42.58836 -70.51514 7014 ft 247 kts 263°
2026-05-05 19:25 42.58726 -70.53848 6708 ft 246 kts 262°
2026-05-05 19:25 42.58533 -70.56119 6410 ft 244 kts 257°
2026-05-05 19:25 42.58178 -70.58344 6154 ft 241 kts 252°
2026-05-05 19:26 42.57711 -70.60533 5907 ft 240 kts 251°
2026-05-05 19:26 42.57246 -70.62683 5626 ft 239 kts 251°
2026-05-05 19:26 42.56779 -70.64833 5319 ft 239 kts 251°
2026-05-05 19:26 42.56311 -70.66981 5059 ft 238 kts 250°
2026-05-05 19:27 42.56031 -70.69219 4789 ft 244 kts 267°
2026-05-05 19:27 42.56247 -70.71488 4545 ft 246 kts 274°
2026-05-05 19:27 42.56583 -70.73770 4265 ft 247 kts 275°
2026-05-05 19:27 42.56944 -70.76043 4027 ft 247 kts 276°
2026-05-05 19:28 42.57312 -70.78293 3879 ft 242 kts 276°
2026-05-05 19:28 42.57679 -70.80517 3732 ft 238 kts 276°
2026-05-05 19:28 42.57979 -70.82661 3601 ft 229 kts 264°
2026-05-05 19:28 42.57717 -70.84708 3479 ft 217 kts 249°
2026-05-05 19:29 42.57243 -70.86640 3354 ft 211 kts 246°
2026-05-05 19:29 42.56757 -70.88484 3243 ft 204 kts 246°
2026-05-05 19:29 42.56142 -70.90150 3126 ft 194 kts 226°
2026-05-05 19:29 42.55099 -70.91243 3033 ft 187 kts 211°
2026-05-05 19:30 42.53953 -70.91979 2977 ft 179 kts 205°
2026-05-05 19:30 42.52834 -70.92578 2981 ft 167 kts 204°
2026-05-05 19:30 42.51774 -70.93109 2859 ft 160 kts 204°
2026-05-05 19:30 42.50735 -70.93619 2656 ft 158 kts 203°
2026-05-05 19:31 42.49744 -70.94100 2468 ft 150 kts 202°
2026-05-05 19:31 42.48795 -70.94559 2290 ft 141 kts 203°
2026-05-05 19:31 42.47880 -70.95001 2110 ft 137 kts 203°
2026-05-05 19:31 42.46983 -70.95436 1947 ft 137 kts 202°
2026-05-05 19:32 42.46092 -70.95867 1777 ft 137 kts 202°
2026-05-05 19:32 42.45198 -70.96299 1605 ft 136 kts 202°
2026-05-05 19:32 42.44302 -70.96732 1427 ft 136 kts 201°
2026-05-05 19:32 42.43413 -70.97162 1246 ft 136 kts 201°
2026-05-05 19:33 42.42524 -70.97591 1079 ft 138 kts 200°
2026-05-05 19:33 42.41627 -70.98024 891 ft 134 kts 200°
2026-05-05 19:33 42.40765 -70.98438 718 ft 132 kts 200°
2026-05-05 19:33 42.39900 -70.98864 535 ft 131 kts 199°
2026-05-05 19:34 42.39032 -70.99277 379 ft 132 kts 199°
2026-05-05 19:34 42.38174 -70.99697 203 ft 129 kts 198°
2026-05-05 19:34 42.37342 -71.00101 55 ft 126 kts 197°
2026-05-05 19:35 42.36100 -71.00697 27 ft 45 kts 199°
2026-05-05 19:35 42.35887 -71.00800 29 ft 25 kts 199°
2026-05-05 19:35 42.35812 -71.00842 30 ft 6 kts 229°
2026-05-05 19:35 42.35810 -71.00907 30 ft 7 kts 279°
2026-05-05 19:36 42.35818 -71.00983 30 ft 8 kts 277°
2026-05-05 19:36 42.35826 -71.01067 30 ft 9 kts 276°
2026-05-05 19:36 42.35834 -71.01159 30 ft 9 kts 279°
2026-05-05 19:36 42.35844 -71.01247 31 ft 9 kts 278°
2026-05-05 19:37 42.35852 -71.01331 33 ft 10 kts 276°
2026-05-05 19:37 42.35866 -71.01440 32 ft 12 kts 281°
2026-05-05 19:37 42.35903 -71.01530 32 ft 11 kts 350°
2026-05-05 19:37 42.35991 -71.01498 30 ft 15 kts 20°
2026-05-05 19:38 42.36116 -71.01437 30 ft 21 kts 19°
2026-05-05 19:38 42.36257 -71.01369 30 ft 21 kts 19°
2026-05-05 19:38 42.36396 -71.01302 30 ft 21 kts 20°
2026-05-05 19:38 42.36536 -71.01234 29 ft 21 kts 20°
2026-05-05 19:39 42.36683 -71.01162 27 ft 22 kts 20°
2026-05-05 19:39 42.36824 -71.01186 27 ft 21 kts 316°
2026-05-05 19:39 42.36926 -71.01327 27 ft 20 kts 314°
2026-05-05 19:39 42.37026 -71.01456 27 ft 20 kts 315°
2026-05-05 19:40 42.37113 -71.01578 26 ft 16 kts 312°
2026-05-05 19:40 42.37146 -71.01671 27 ft 9 kts 261°
2026-05-05 19:40 42.37127 -71.01723 27 ft 5 kts 223°
2026-05-05 19:40 42.37094 -71.01752 27 ft 5 kts 210°
2026-05-05 19:41 42.37058 -71.01778 27 ft 5 kts 209°
2026-05-05 19:41 42.37047 -71.01787 27 ft 0 kts 208°